Le nostre stazioni meteo in Italia

Pubblicità
Il mio iltempo24.it
Edinburgh/Gogarbank, Gran Bretagna (3166): Temperatura & dewpoint: 12.01.2020 08:00:00 - 18.01.2020 08:00:00 (GMT)Edinburgh/Gogarbank, Gran Bretagna (3166): Temperatura -20cm & Temperatura -100cm: 12.01.2020 08:00:00 - 18.01.2020 08:00:00 (GMT)Edinburgh/Gogarbank, Gran Bretagna (3166): velocità del vento & gusts: 12.01.2020 08:00:00 - 18.01.2020 08:00:00 (GMT)Edinburgh/Gogarbank, Gran Bretagna (3166): direzione del vento: 12.01.2020 08:00:00 - 18.01.2020 08:00:00 (GMT)Edinburgh/Gogarbank, Gran Bretagna (3166): reduced air pressure: 12.01.2020 08:00:00 - 18.01.2020 08:00:00 (GMT)Edinburgh/Gogarbank, Gran Bretagna (3166): visibility: 12.01.2020 08:00:00 - 18.01.2020 08:00:00 (GMT)Edinburgh/Gogarbank, Gran Bretagna (3166): ore di luce: 12.01.2020 08:00:00 - 18.01.2020 08:00:00 (GMT)Edinburgh/Gogarbank, Gran Bretagna (3166): precipitazioni: 12.01.2020 08:00:00 - 18.01.2020 08:00:00 (GMT)
Data & Tempo tt [°C] td [°C] tt -20cm [°C] tt -100cm [°C] ff [km/h] ff [kn] fx [km/h] fx [kn] dd ppp [hPa] vv [km] sd [min] rr [mm]
18.01.2020 08:00:00 2,7 0,5 - - 22 12 - - OSO 1020,9 45 0 0,0
18.01.2020 07:00:00 2,4 0,1 - - 22 12 - - OSO 1019,7 30 0 0,0
18.01.2020 06:00:00 2,3 -0,1 - - 21 11 - - OSO 1018,9 35 0 0,0
18.01.2020 05:00:00 2,2 -0,2 - - 22 12 - - OSO 1017,7 45 0 0,0
18.01.2020 04:00:00 2,2 -0,6 - - 18 10 - - OSO 1017,2 40 0 0,0
18.01.2020 03:00:00 2,4 -0,5 - - 16 9 - - SO 1016,5 27 0 0,0
18.01.2020 02:00:00 2,9 0,0 - - 21 11 - - OSO 1015,4 24 0 0,0
18.01.2020 01:00:00 2,9 0,1 - - 22 12 - - OSO 1014,3 20 0 0,0
18.01.2020 00:00:00 3,1 0,0 - - 22 12 - - OSO 1013,5 22 - 0,0
17.01.2020 23:00:00 3,3 0,3 - - 21 11 - - SO 1012,2 23 0 0,0
17.01.2020 22:00:00 3,3 0,7 - - 18 10 - - SO 1011,0 22 0 0,0
17.01.2020 21:00:00 4,0 1,6 - - 18 10 - - OSO 1010,2 22 0 0,0
17.01.2020 20:00:00 4,2 1,6 - - 21 11 - - OSO 1009,4 21 0 0,0
17.01.2020 19:00:00 4,5 1,8 - - 21 11 - - OSO 1008,4 18 0 0,0
17.01.2020 18:00:00 4,3 1,9 - - 18 10 - - OSO 1007,6 25 0 0,0
17.01.2020 17:00:00 4,7 2,3 - - 21 11 - - SO 1006,7 27 0 0,0
17.01.2020 16:00:00 5,3 2,5 - - 18 10 - - OSO 1005,8 35 0 0,0
17.01.2020 15:00:00 5,8 2,5 - - 16 9 - - OSO 1005,3 20 0 0,0
17.01.2020 14:00:00 5,9 2,0 - - 22 12 - - OSO 1004,7 30 36 0,0
17.01.2020 13:00:00 5,7 1,9 - - 22 12 - - SO 1004,3 20 42 0,0
17.01.2020 12:00:00 4,8 1,1 - - 24 13 - - SO 1004,3 22 18 0,0
17.01.2020 11:00:00 4,1 1,1 - - 21 11 - - SO 1004,2 25 0 0,0
17.01.2020 10:00:00 3,7 0,9 - - 15 8 - - SO 1003,8 28 0 0,0
17.01.2020 09:00:00 3,2 0,7 6,0 7,0 9 5 - - SO 1003,3 22 0 0,0
17.01.2020 08:00:00 3,4 0,5 - - 11 6 - - SO 1003,0 28 0 0,0
17.01.2020 07:00:00 3,0 0,8 - - 13 7 - - SO 1002,4 26 0 0,0
17.01.2020 06:00:00 4,1 1,1 - - 13 7 - - SO 1002,0 28 0 0,0
17.01.2020 05:00:00 4,4 1,2 - - 13 7 - - SSO 1001,5 40 0 0,0
17.01.2020 04:00:00 4,8 1,5 - - 18 10 - - SO 1001,3 35 0 0,0
17.01.2020 03:00:00 5,8 1,9 - - 24 13 - - SO 1000,7 40 0 0,0
17.01.2020 02:00:00 6,0 2,2 - - 24 13 46 25 SO 1000,3 40 0 0,0
17.01.2020 01:00:00 6,5 2,2 - - 31 17 50 27 SO 1000,1 50 0 0,0
17.01.2020 00:00:00 6,7 2,6 - - 29 16 48 26 SO 999,3 35 - 0,0
16.01.2020 23:00:00 6,7 3,0 - - 29 16 52 28 SO 998,3 50 0 0,0
16.01.2020 22:00:00 7,2 3,6 - - 31 17 50 27 SO 997,6 50 0 0,0
16.01.2020 21:00:00 7,7 4,7 - - 24 13 48 26 SO 996,4 50 0 0,0
16.01.2020 20:00:00 10,0 7,3 - - 26 14 46 25 SO 994,7 30 0 1,2
16.01.2020 19:00:00 10,3 8,2 - - 28 15 48 26 SSO 993,2 13 0 0,2
16.01.2020 18:00:00 9,8 7,6 - - 24 13 54 29 S 993,0 12 0 0,6
16.01.2020 17:00:00 9,1 7,1 - - 34 18 63 34 S 993,0 4,8 0 2,0
16.01.2020 16:00:00 8,7 6,2 - - 16 9 - - SSE 994,2 13 0 0,6
16.01.2020 15:00:00 8,1 5,4 - - 18 10 - - SE 996,6 11 0 0,2
16.01.2020 14:00:00 8,1 3,7 - - 15 8 - - ESE 998,9 29 0 0,0
16.01.2020 13:00:00 8,5 3,9 - - 22 12 - - SE 1001,5 27 0 0,0
16.01.2020 12:00:00 8,7 4,0 - - 15 8 - - S 1003,6 35 0 0,0
16.01.2020 11:00:00 8,9 4,1 - - 24 13 46 25 S 1004,4 30 0 0,0
16.01.2020 10:00:00 8,7 4,5 - - 24 13 50 27 S 1004,6 21 0 0,0
16.01.2020 09:00:00 8,3 4,4 5,7 7,0 22 12 - - SSO 1005,0 29 0 0,0
16.01.2020 08:00:00 8,2 4,3 - - 18 10 - - SSO 1005,0 30 0 0,0
16.01.2020 07:00:00 7,9 4,7 - - 9 5 - - SSO 1005,7 26 0 0,0
16.01.2020 06:00:00 6,6 3,6 - - 11 6 - - SO 1006,7 19 0 0,0
16.01.2020 05:00:00 6,8 2,9 - - 24 13 - - SO 1007,0 23 0 0,0
16.01.2020 04:00:00 6,4 2,8 - - 26 14 48 26 SO 1006,7 27 0 0,0
16.01.2020 03:00:00 6,3 2,2 - - 31 17 52 28 SO 1007,0 30 0 0,0
16.01.2020 02:00:00 5,4 1,6 - - 26 14 - - SO 1007,1 35 0 0,0
16.01.2020 01:00:00 5,0 1,5 - - 24 13 50 27 SO 1006,6 29 0 0,0
16.01.2020 00:00:00 5,4 1,9 - - 28 15 54 29 SO 1005,5 28 - 0,0
15.01.2020 23:00:00 5,5 1,7 - - 26 14 52 28 SO 1003,9 26 0 0,0
15.01.2020 22:00:00 5,5 1,6 - - 28 15 61 33 OSO 1002,6 23 0 0,0
15.01.2020 21:00:00 6,0 1,6 - - 35 19 65 35 SO 1001,2 27 0 0,0
15.01.2020 20:00:00 6,0 1,4 - - 39 21 67 36 SO 999,6 28 0 0,0
15.01.2020 19:00:00 6,2 1,3 - - 39 21 70 38 SO 998,0 30 0 0,0
15.01.2020 18:00:00 6,4 1,4 - - 37 20 65 35 SO 996,4 24 0 0,0
15.01.2020 17:00:00 6,9 1,4 - - 39 21 67 36 SO 994,9 24 0 0,0
15.01.2020 16:00:00 6,8 1,5 - - 39 21 70 38 SO 993,6 18 0 0,0
15.01.2020 15:00:00 7,2 1,5 - - 46 25 78 42 SO 991,9 22 18 0,0
15.01.2020 14:00:00 7,3 1,2 - - 48 26 76 41 SO 990,9 21 42 0,0
15.01.2020 13:00:00 7,1 1,2 - - 41 22 74 40 SO 990,8 16 42 0,0
15.01.2020 12:00:00 6,8 0,9 - - 41 22 83 45 SO 990,1 20 48 0,0
15.01.2020 11:00:00 6,1 1,0 - - 37 20 68 37 SO 989,5 23 36 0,0
15.01.2020 10:00:00 5,5 0,7 - - 37 20 63 34 SO 989,1 23 0 0,0
15.01.2020 09:00:00 5,7 0,5 6,0 7,0 35 19 57 31 SO 988,5 22 0 0,0
15.01.2020 08:00:00 4,9 0,2 - - 29 16 57 31 SO 987,8 28 0 0,0
15.01.2020 07:00:00 5,1 0,5 - - 34 18 55 30 SO 986,9 24 0 0,0
15.01.2020 06:00:00 4,8 0,3 - - 31 17 57 31 SO 986,4 26 0 0,0
15.01.2020 05:00:00 4,4 -0,2 - - 29 16 54 29 SO 986,1 25 0 0,0
15.01.2020 04:00:00 4,5 -0,2 - - 34 18 55 30 SO 985,8 30 0 0,0
15.01.2020 03:00:00 4,7 -0,2 - - 35 19 55 30 SO 985,6 29 0 0,0
15.01.2020 02:00:00 4,3 -0,4 - - 29 16 46 25 SSO 985,2 30 0 0,0
15.01.2020 01:00:00 4,1 -0,4 - - 31 17 52 28 SO 984,7 35 0 0,0
15.01.2020 00:00:00 4,1 -0,5 - - 34 18 54 29 SSO 984,2 45 - 0,0
14.01.2020 23:00:00 3,8 0,0 - - 29 16 50 27 SO 983,6 50 0 0,0
14.01.2020 22:00:00 3,8 0,5 - - 29 16 48 26 SO 982,7 45 0 0,0
14.01.2020 21:00:00 3,8 1,0 - - 28 15 - - SO 981,9 50 0 0,0
14.01.2020 20:00:00 4,1 1,7 - - 28 15 - - SO 981,2 50 0 0,0
14.01.2020 19:00:00 4,4 2,1 - - 28 15 - - SO 979,8 50 0 0,0
14.01.2020 18:00:00 3,8 1,9 - - 18 10 - - SO 979,5 50 0 0,0
14.01.2020 17:00:00 3,5 2,0 - - 9 5 - - S 979,0 30 0 0,4
14.01.2020 16:00:00 3,8 2,3 - - 5 3 - - SO 979,2 26 0 0,4
14.01.2020 15:00:00 4,1 2,4 - - 4 2 - - S 979,6 23 0 0,2
14.01.2020 14:00:00 4,5 2,3 - - 11 6 - - SSO 980,3 22 0 0,0
14.01.2020 13:00:00 5,1 1,7 - - 28 15 - - SSO 981,7 17 0 0,0
14.01.2020 12:00:00 5,6 1,4 - - 26 14 48 26 SSO 982,6 40 0 0,0
14.01.2020 11:00:00 5,6 0,6 - - 28 15 46 25 SSO 983,2 19 0 0,0
14.01.2020 10:00:00 4,8 0,2 - - 24 13 50 27 SO 983,5 21 0 0,0
14.01.2020 09:00:00 4,7 -0,2 6,2 7,0 34 18 52 28 SO 983,3 25 0 0,0
14.01.2020 08:00:00 4,4 -0,4 - - 28 15 52 28 SO 983,3 23 0 0,0
14.01.2020 07:00:00 4,3 -0,8 - - 29 16 52 28 SO 982,6 21 0 0,0
14.01.2020 06:00:00 4,1 -1,1 - - 28 15 55 30 SO 982,7 19 0 0,0
14.01.2020 05:00:00 4,1 -1,6 - - 39 21 63 34 SO 982,3 22 0 0,0
14.01.2020 04:00:00 4,2 -1,3 - - 39 21 63 34 SO 981,6 20 0 0,0
14.01.2020 03:00:00 4,6 -0,7 - - 39 21 61 33 SO 981,3 17 0 0,0
14.01.2020 02:00:00 4,8 -0,3 - - 35 19 76 41 SO 981,0 18 0 0,0
14.01.2020 01:00:00 5,0 0,5 - - 41 22 72 39 SO 980,4 10 0 0,2
14.01.2020 00:00:00 4,4 2,4 - - 29 16 61 33 OSO 979,8 18 - 0,6
13.01.2020 23:00:00 7,0 1,8 - - 37 20 63 34 SO 978,9 22 0 0,0
13.01.2020 22:00:00 7,4 2,4 - - 34 18 59 32 SSO 978,0 14 0 0,0
13.01.2020 21:00:00 7,6 3,1 - - 35 19 61 33 SSO 977,4 14 0 0,0
13.01.2020 20:00:00 7,2 3,6 - - 34 18 63 34 SSO 977,2 23 0 0,0
13.01.2020 19:00:00 7,3 3,1 - - 35 19 63 34 SSO 976,6 17 0 0,0
13.01.2020 18:00:00 7,5 3,4 - - 34 18 81 44 SSO 976,7 45 0 0,4
13.01.2020 17:00:00 6,6 3,6 - - 39 21 70 38 S 975,9 30 0 0,6
13.01.2020 16:00:00 6,7 3,7 - - 35 19 72 39 S 978,5 10 0 0,4
13.01.2020 15:00:00 6,9 3,5 - - 28 15 54 29 S 981,8 19 0 0,0
13.01.2020 14:00:00 7,0 2,8 - - 26 14 54 29 SE 986,5 14 0 0,0
13.01.2020 13:00:00 7,3 2,4 - - 24 13 50 27 SSE 990,1 45 6 0,0
13.01.2020 12:00:00 7,2 2,3 - - 16 9 - - SSE 992,8 35 0 0,0
13.01.2020 11:00:00 7,0 2,7 - - 11 6 - - SSE 995,8 28 0 0,0
13.01.2020 10:00:00 6,7 2,7 - - 26 14 48 26 S 997,7 29 0 0,0
13.01.2020 09:00:00 5,8 2,4 6,2 7,2 26 14 - - SSO 999,2 40 0 0,0
13.01.2020 08:00:00 5,1 1,1 - - 18 10 - - S 1000,9 45 0 0,0
13.01.2020 07:00:00 4,9 1,3 - - 21 11 - - SSO 1002,4 45 0 0,0
13.01.2020 06:00:00 4,5 1,3 - - 13 7 - - SSO 1003,8 35 0 0,0
13.01.2020 05:00:00 4,0 1,0 - - 9 5 - - SO 1004,8 50 0 0,0
13.01.2020 04:00:00 4,0 1,3 - - 15 8 - - SO 1005,4 50 0 0,0
13.01.2020 03:00:00 4,3 1,2 - - 18 10 - - SO 1006,3 45 0 0,0
13.01.2020 02:00:00 3,8 1,5 - - 8 4 - - SSO 1007,5 45 0 0,0
13.01.2020 01:00:00 4,6 1,8 - - 15 8 - - SO 1008,0 40 0 0,0
13.01.2020 00:00:00 4,1 1,5 - - 16 9 61 33 SO 1008,3 30 - 0,0
12.01.2020 23:00:00 4,3 1,0 - - 21 11 - - SO 1009,1 40 0 0,0
12.01.2020 22:00:00 4,5 1,3 - - 28 15 46 25 SO 1009,5 30 0 0,0
12.01.2020 21:00:00 4,3 1,4 - - 22 12 - - SO 1009,8 40 0 0,0
12.01.2020 20:00:00 4,0 1,4 - - 18 10 - - SO 1010,3 27 0 0,0
12.01.2020 19:00:00 4,1 1,5 - - 18 10 - - SO 1010,4 30 0 0,0
12.01.2020 18:00:00 3,2 1,3 - - 13 7 - - OSO 1010,6 40 0 0,2
12.01.2020 17:00:00 4,1 1,9 - - 16 9 - - O 1010,6 40 0 0,0
12.01.2020 16:00:00 4,6 1,0 - - 22 12 46 25 OSO 1010,0 35 0 0,0
12.01.2020 15:00:00 4,8 2,1 - - 18 10 - - OSO 1009,8 45 30 0,0
12.01.2020 14:00:00 6,5 2,0 - - 21 11 - - OSO 1009,5 35 60 0,0
12.01.2020 13:00:00 6,0 2,6 - - 24 13 - - OSO 1009,6 35 60 0,0
12.01.2020 12:00:00 5,5 2,8 - - 21 11 - - OSO 1009,5 40 42 0,0
12.01.2020 11:00:00 5,4 2,7 - - 24 13 - - OSO 1009,2 50 12 0,0
12.01.2020 10:00:00 5,3 3,8 - - 18 10 - - OSO 1008,2 45 0 0,2
12.01.2020 09:00:00 5,5 4,0 6,7 7,2 18 10 - - OSO 1007,0 26 0 0,8
12.01.2020 08:00:00 5,4 3,0 - - 13 7 - - SO 1006,4 45 0 0,0

tt = Temperatura
td = dewpoint
tt -20cm = Temperatura -20cm
tt -100cm = Temperatura -100cm
ff = velocità del vento
fx = gusts
dd = direzione del vento
ppp = reduced air pressure
vv = visibility
sd = ore di luce
rr = precipitazioni

Stazioni seguenti

WeatherPro
AMSI
MeteoEarth